Regional Weather Roundup
Issued by NWS Charleston, WV

Home | Current Version | Previous Version | Text Only | Print | Product List | Glossary Off
Versions: 1 2 3 4 5 6 7 8 9 10 11 12 13 14 15 16 17 18 19 20 21 22 23 24 25 26 27 28 29 30 31 32 33 34 35 36 37 38 39 40 41 42 43 44 45 46 47 48 49 50

000
ASUS41 KRLX 070610
RWRRLX
West Virginia Regional Weather Roundup
National Weather Service Charleston WV
200 AM EDT TUE JUL 07 2015

Note: "fair" indicates few or no clouds below 12,000 feet with no
significant weather and/or obstructions to visibility.

WVZ003-070700-
Northern Panhandle of West Virginia

CITY           SKY/WX    TMP DP  RH WIND       PRES   REMARKS
WHEELING       PTCLDY    69  67  93 SW6       30.04S
$$

WVZ009-070700-
Northwest West Virginia

CITY           SKY/WX    TMP DP  RH WIND       PRES   REMARKS
PARKERSBURG    PTCLDY    69  67  93 S6        30.07S
$$

WVZ006-070700-
Western West Virginia

CITY           SKY/WX    TMP DP  RH WIND       PRES   REMARKS
HUNTINGTON     CLEAR     69  68  96 SE5       30.05S FOG
$$

WVZ015-070700-
West Central West Virginia

CITY           SKY/WX    TMP DP  RH WIND       PRES   REMARKS
CHARLESTON     PTCLDY    67  65  93 CALM      30.07F
$$

WVZ022-031-070700-
North Central West Virginia

CITY           SKY/WX    TMP DP  RH WIND       PRES   REMARKS
CLARKSBURG     HVY RAIN  68  66  94 S3        30.07F FOG
MORGANTOWN     CLEAR     69  65  86 S3        30.07F
$$

WVZ025-035-042-045-070700-
Southern West Virginia

CITY           SKY/WX    TMP DP  RH WIND       PRES   REMARKS
BECKLEY        CLEAR     64  61  90 S3        30.17S
LOGAN          FOG       66  66 100 CALM      30.08S VSB<1/4
BLUEFIELD      CLEAR     65  60  84 W3        30.20S
LEWISBURG      PTCLDY    65  62  93 CALM      30.17S FOG
$$

WVZ047-070700-
Northern Mountains of West Virginia

CITY           SKY/WX    TMP DP  RH WIND       PRES   REMARKS
ELKINS         CLOUDY    67  65  93 CALM      30.13R FOG
$$

WVZ052-070700-
Eastern Panhandle of West Virginia

CITY           SKY/WX    TMP DP  RH WIND       PRES   REMARKS
MARTINSBURG    CLEAR     70  68  93 CALM      30.03S
PETERSBURG     FOG       67  65  93 CALM      30.07S VSB 3/4
$$


USA.gov is the U.S. government's official web portal to all federal, state and local government web resources and services.